Location: Al Mulaqqa?ah
(24.1833°N, 32.8833°E)
Time: 22:22:32
(UTC+00:00)

DMSP B5D1-3 - Pass Details

Date: 26 September 2021
Orbit: 766 x 780 km, 98.5° (Epoch: 21 October)

Event Time Altitude Azimuth Distance (km) Brightness Sun altitude
Rises 16:17:24 0° 16° (NNE) 3,236 7.6 -9.2°
Reaches altitude 10° 16:19:43 10° 19° (NNE) 2,308 6.8 -9.8°
Maximum altitude 16:24:47 67° 102° (ESE) 834 4.5 -10.9°
Drops below altitude 10° 16:29:50 10° 184° (S) 2,308 7.0 -12.1°
Sets 16:32:09 0° 187° (S) 3,234 7.8 -12.6°
